Regional Weather Roundup
Issued by NWS Midland/Odessa, TX

Home | Current Version | Previous Version | Text Only | Print | Product List | Glossary On
Versions: 1 2 3 4 5 6 7 8 9 10 11 12 13 14 15 16 17 18 19 20 21 22 23 24 25 26 27 28 29 30 31 32 33 34 35 36 37 38 39 40 41 42 43 44 45 46 47 48 49 50
000
ASUS44 KMAF 270810
RWRMAF
MIDLAND AREA WEATHER ROUNDUP
NATIONAL WEATHER SERVICE MIDLAND TX
300 AM CDT SAT MAY 27 2017

...IN SOUTHWEST TEXAS AND SOUTHEAST NEW MEXICO...

CITY           SKY/WX    TMP DP  RH WIND       PRES   REMARKS
ALPINE         CLEAR     68  39  34 SW9       30.08F
ANDREWS        FAIR      73  52  48 SW12      29.90S
ARTESIA        CLEAR     70  27  19 SW13      29.91S
BIG SPRING     CLEAR     74  65  71 S14       29.89S
CARLSBAD       CLEAR     78  28  16 W12       29.89S
DRYDEN           N/A     74  70  87 N7        29.86F
FORT STOCKTON  CLEAR     75  58  55 S13       29.90F
GUAD PASS      CLEAR     69  26  20 SW18      30.07S
HOBBS          CLEAR     70  27  19 W9        29.92F
MARFA          CLEAR     61  29  29 NW10      30.08S
MIDLAND AIRPK  CLEAR     78  62  56 S13       29.88F
MIDLAND INTL   CLEAR     77  61  57 S10       29.88F
ODESSA         CLEAR     77  61  57 S13       29.89F
PECOS          CLEAR     80  32  17 SW10      29.88S
PRESIDIO       FAIR      81  30  15 N6        29.93S
SEMINOLE       CLEAR     70  32  24 SW9       29.91R
SNYDER         CLEAR     69  42  37 S5        29.85S
WINK           CLEAR     72  31  22 SE6       29.87S
$$
...OTHER STATIONS IN TEXAS...

CITY           SKY/WX    TMP DP  RH WIND       PRES   REMARKS
ABILENE        CLEAR     79  70  74 S16G23    29.83S
AMARILLO       CLEAR     65  43  44 S10       29.83S
AUSTIN         DRIZZLE   79  76  90 S12       29.85F FOG
BROWNSVILLE    CLOUDY    83  77  82 S14       29.89S
CORPUS CHRISTI CLOUDY    80  78  94 S14       29.85F
DALLAS FTW     CLOUDY    80  75  84 S17G23    29.79S
DEL RIO        PTCLDY    77  74  90 E7        29.81F
EL PASO        CLEAR     81  26  13 W18       29.99S
HOUSTON INT    CLOUDY    81  75  82 S9        29.88F
LUBBOCK        CLEAR     73  30  20 SW13      29.85S
SAN ANGELO     CLEAR     75  67  76 S6        29.86F
SAN ANTONIO    CLOUDY    78  75  90 S10       29.88F
WACO           CLOUDY    79  75  87 S13       29.83F
WICHITA FALLS  NOT AVBL
$$
...OTHER LOCATIONS IN NEW MEXICO...

CITY           SKY/WX    TMP DP  RH WIND       PRES   REMARKS
ALAMOGORDO     CLEAR     68  23  18 S6        30.01S
ALBUQUERQUE    CLEAR     60   9  13 SE6       30.05R
CANNON AFB     CLEAR     62  27  26 W14       29.92R
CLOVIS         CLEAR     64  28  25 W13       29.90S
HOLLOMAN AFB   CLEAR     74  19  12 S10       30.02S
ROSWELL        CLEAR     72  26  18 W13       29.89S
RUIDOSO        CLEAR     63  14  15 W7        30.13F
SANTA FE       CLEAR     53  11  18 NW3       30.08R
TRUTH OR CONSE CLEAR     70  14  11 NW5       30.01S
TUCUMCARI      CLEAR     69  22  16 W16       29.83S
$$



USA.gov is the U.S. government's official web portal to all federal, state and local government web resources and services.